[[{"header":{"parameterUnit":"m.s-1","parameterCategory":1,"la1":30.2991,"la2":30.254,"lo1":-89.0895,"lo2":-89.0444,"dy":0.0017,"dx":0.0017,"nx":28,"ny":28,"refTime":"2023-07-21T09:00:00:Z","depth":0,"parameterNumber":2,"parameterNumberName":"U-component_of_WINDS"},"data":[0,0,0,0,0,0,0,0,0,0,0,0,0,0,0,0,0,0,0,0,0,0,0,0,0,0,0,0,0,0,0,0,0,0,0,0,0,0,0,0,0,0,0,0,0,0,0,0,0,0,0,0,0,0,0,0,0,0,3.0103,3.0105,0,3.0218,3.0219,3.022,3.0176,3.0173,3.0171,3.0168,3.0288,3.0293,3.0299,0,0,0,0,0,0,0,0,0,0,0,0,0,2.9849,2.9854,3.0103,3.0105,3.0106,3.0217,3.0219,3.022,3.0176,3.0173,3.017,3.0167,3.0286,3.0292,3.0299,0,0,0,0,0,0,0,0,0,0,0,0,0,2.9961,2.9856,3.0103,3.0098,3.0098,3.0217,3.0219,3.0221,3.0177,3.0173,3.0169,3.0166,3.0283,3.0292,3.03,3.0432,0,0,3.0326,3.033,0,0,0,0,0,0,0,0,2.9955,2.9971,3.0097,3.0098,3.0099,3.0178,3.0173,3.0292,3.0178,3.0147,3.0168,3.0164,3.0255,3.0265,3.0295,3.0437,3.0442,3.0327,3.0332,3.0335,3.0338,0,0,0,0,0,0,0,2.9947,2.9965,3.0148,3.0099,3.01,3.009,3.0102,3.0195,3.0222,3.015,3.0147,3.0161,3.0254,3.0287,3.0298,3.0444,3.0326,3.0334,3.0339,3.0342,3.07,3.0704,0,0,0,0,0,0,2.9939,2.9959,3.0145,3.0152,3.0016,3.0098,3.0111,3.0157,3.0221,3.0227,3.0164,3.0158,3.0275,3.0288,3.0302,3.046,3.0335,3.0343,3.0348,3.0696,3.0701,3.0706,0,0,0,0,0,0,2.9934,2.9956,3.014,3.0055,3.0078,3.0106,3.0159,3.0161,3.0194,3.0231,3.0236,3.0193,3.0272,3.029,3.04,3.0464,3.0347,3.0355,3.069,3.0697,3.0703,3.0778,0,0,0,0,0,0,2.9926,2.9954,3.0004,3.0056,3.0082,3.0236,3.0163,3.0166,3.0209,3.0202,3.026,3.0265,3.027,3.0387,3.0408,3.0473,3.0361,3.0685,3.0693,3.0701,3.077,3.0786,3.08,0,0,0,0,0,2.9918,3.0021,3.0007,3.0029,3.0145,3.0239,3.0254,3.0257,3.0214,3.0265,3.0289,3.0264,3.0453,3.0399,3.0422,3.0491,3.0681,3.0691,3.0701,3.0763,3.0783,3.08,0,0,0,0,0,0,2.9976,3.0028,3.0013,3.0136,3.0184,3.0232,3.0296,3.0279,3.034,3.0332,3.0334,3.0347,3.046,3.0486,3.0425,3.0621,3.0561,3.0576,3.06,3.0619,3.0634,3.0626,3.0368,0,0,0,0,0,3.0003,3.0075,3.0116,3.0221,3.0246,3.0267,3.0308,3.0306,3.0356,3.0376,3.0408,3.0458,3.0529,3.0576,3.0643,3.0773,3.0785,3.0832,3.0847,3.0859,3.0873,3.0943,3.0965,3.0738,3.0738,3.0738,0,0,3.0061,3.0098,3.0143,3.0234,3.0271,3.0345,3.0284,3.0366,3.0421,3.0389,3.0494,3.0519,3.0575,3.0696,3.0751,3.0721,3.0938,3.0872,3.0882,3.0888,3.0956,3.0977,3.0996,3.0745,3.0744,3.0743,0,0,3.0203,3.0238,3.0329,3.0367,3.0423,3.0436,3.0458,3.0509,3.0524,3.063,3.0607,3.0674,3.0796,3.0836,3.0873,3.1031,3.101,3.1053,3.1132,3.1201,3.1219,3.1235,3.1291,3.1311,3.1065,3.1066,3.1066,0,3.0267,3.0378,3.0378,3.0462,3.0503,3.0476,3.0568,3.0605,3.0681,3.071,3.0676,3.0828,3.0864,3.0994,3.1032,3.1063,3.1088,3.1046,3.1216,3.1232,3.1247,3.1301,3.1322,3.107,3.107,3.1069,3.1069,0,3.0454,3.0531,3.0598,3.0671,3.0719,3.0807,3.0821,3.0871,3.0865,3.0882,3.099,3.1032,3.1107,3.1138,3.1133,3.1267,3.1247,3.1215,3.1154,3.1273,3.1324,3.1344,3.1077,3.1076,3.1074,3.1073,0,0,3.0636,3.0708,3.0732,3.0765,3.0825,3.0885,3.0972,3.1044,3.1087,3.114,3.1213,3.1317,3.1287,3.1329,3.1329,3.1389,3.1511,3.135,3.1351,3.1378,3.1662,3.1685,3.1709,3.1498,3.1502,3.1505,3.1657,0,3.0783,3.0934,3.0937,3.1076,3.1147,3.1123,3.1199,3.1244,3.1262,3.1326,3.1347,3.142,3.1376,3.1401,3.146,3.1484,3.1568,3.1473,3.1566,3.157,3.1553,3.1735,3.1761,3.1902,3.1677,3.168,3.1682,0,3.0974,3.1033,3.1179,3.1228,3.1258,3.1326,3.1392,3.1454,3.1505,3.1514,3.1561,3.1551,3.164,3.1577,3.17,3.1635,3.1673,3.1691,3.1696,3.1705,3.1633,3.1749,3.1947,3.1968,3.1713,3.1711,3.1709,0,3.1093,3.1208,3.131,3.1339,3.1399,3.1447,3.1474,3.1521,3.1565,3.1624,3.1652,3.1721,3.1759,3.1812,3.1822,3.1775,3.1946,3.1882,3.1956,3.1956,3.1993,3.199,3.22,3.2018,3.2018,3.2017,3.2017,0,3.1256,3.1346,3.1364,3.1426,3.1527,3.153,3.1629,3.1653,3.1695,3.1763,3.1746,3.181,3.1819,3.1885,3.1894,3.1994,3.2012,3.2022,3.2023,3.2023,3.2022,3.2048,3.2039,3.2023,3.2022,3.2021,3.202,0,3.1405,3.142,3.153,3.1578,3.1592,3.1664,3.1705,3.1765,3.1782,3.1867,3.1888,3.1914,3.1991,3.2006,3.2098,3.2103,3.2223,3.2214,3.2205,3.2204,3.2277,3.227,3.251,3.2542,3.234,3.2342,3.2344,0,3.1508,3.1577,3.1632,3.1675,3.1705,3.1776,3.182,3.1825,3.1872,3.1935,3.1988,3.2063,3.2124,3.2248,3.2276,3.2346,3.2339,3.2418,3.2349,3.2347,3.234,3.2335,3.2342,3.2431,3.2434,3.2435,3.2437,0,3.169,3.1694,3.1758,3.1824,3.1877,3.193,3.198,3.2017,3.2029,3.2083,3.2161,3.2208,3.2301,3.2376,3.2446,3.2474,3.2458,3.2458,3.2479,3.248,3.2472,3.2477,3.2241,3.2453,3.2451,3.245,3.2449,3.2448,3.1819,3.1879,3.1927,3.1998,3.2036,3.2084,3.2143,3.2166,3.2231,3.2306,3.2306,3.2392,3.2441,3.2533,3.2566,3.2634,3.2609,3.2639,3.2646,3.2654,3.266,3.2461,3.2647,3.2646,3.2646,3.2646,3.2645,0,3.2,3.2029,3.2095,3.2165,3.2222,3.22,3.2255,3.2304,3.2379,3.2426,3.2485,3.2575,3.2648,3.2681,3.2753,3.2801,3.2795,3.2819,3.2816,3.2823,3.2679,3.2653,3.2823,3.2822,3.2822,3.2822,3.2822,3.2822,3.21,3.22,3.221,3.2329,3.2358,3.2441,3.2473,3.2517,3.2555,3.2655,3.2715,3.2736,3.2778,3.2852,3.2918,3.2926,3.2953,3.2981,3.2986,3.2851,3.2833,3.2816,3.2792,3.2987,3.2987,3.3124,3.3125,3.3126]},{"header":{"parameterUnit":"m.s-1","parameterCategory":1,"la1":30.2991,"la2":30.254,"lo1":-89.0895,"lo2":-89.0444,"dy":0.0017,"dx":0.0017,"nx":28,"ny":28,"refTime":"2023-07-21T09:00:00:Z","depth":0,"parameterNumber":3,"parameterNumberName":"V-component_of_WINDS"},"data":[0,0,0,0,0,0,0,0,0,0,0,0,0,0,0,0,0,0,0,0,0,0,0,0,0,0,0,0,0,0,0,0,0,0,0,0,0,0,0,0,0,0,0,0,0,0,0,0,0,0,0,0,0,0,0,0,0,0,-0.782,-0.782,0,-0.785,-0.785,-0.785,-0.7859,-0.7859,-0.7859,-0.7859,-0.789,-0.7891,-0.7892,0,0,0,0,0,0,0,0,0,0,0,0,0,-0.7772,-0.7773,-0.782,-0.782,-0.7821,-0.785,-0.785,-0.7851,-0.7859,-0.7859,-0.7859,-0.7859,-0.789,-0.7891,-0.7892,0,0,0,0,0,0,0,0,0,0,0,0,0,-0.7796,-0.7773,-0.782,-0.7829,-0.783,-0.785,-0.785,-0.7851,-0.7859,-0.7859,-0.7859,-0.7859,-0.7889,-0.7891,-0.7892,-0.7906,0,0,-0.7897,-0.7897,0,0,0,0,0,0,0,0,-0.7795,-0.7798,-0.7827,-0.7828,-0.7829,-0.7851,-0.7845,-0.7869,-0.7859,-0.7848,-0.7859,-0.7859,-0.7877,-0.788,-0.7886,-0.7907,-0.7909,-0.7897,-0.7898,-0.7898,-0.7899,0,0,0,0,0,0,0,-0.7793,-0.7797,-0.7832,-0.7827,-0.7829,-0.7831,-0.7835,-0.7849,-0.7864,-0.7849,-0.785,-0.7853,-0.7878,-0.7884,-0.7887,-0.7909,-0.7897,-0.7898,-0.7899,-0.79,-0.7944,-0.7945,0,0,0,0,0,0,-0.779,-0.7795,-0.7831,-0.7833,-0.7811,-0.7832,-0.7836,-0.7844,-0.7863,-0.7866,-0.7853,-0.7853,-0.7882,-0.7885,-0.7888,-0.7905,-0.7898,-0.79,-0.7901,-0.7944,-0.7944,-0.7945,0,0,0,0,0,0,-0.7789,-0.7793,-0.783,-0.7814,-0.7819,-0.7834,-0.7842,-0.7845,-0.7851,-0.7867,-0.7869,-0.7857,-0.7882,-0.7886,-0.7901,-0.7906,-0.79,-0.7902,-0.7944,-0.7944,-0.7944,-0.794,0,0,0,0,0,0,-0.7788,-0.7793,-0.7798,-0.7814,-0.782,-0.7842,-0.7843,-0.7845,-0.7854,-0.7854,-0.7871,-0.7874,-0.7882,-0.7899,-0.7903,-0.7908,-0.7903,-0.7943,-0.7944,-0.7944,-0.794,-0.794,-0.7941,0,0,0,0,0,-0.7786,-0.7795,-0.7798,-0.7802,-0.7826,-0.7843,-0.7846,-0.7855,-0.7854,-0.7859,-0.7869,-0.7873,-0.7905,-0.7901,-0.7905,-0.7911,-0.7943,-0.7944,-0.7944,-0.7939,-0.794,-0.7941,0,0,0,0,0,0,-0.7779,-0.7797,-0.7801,-0.7816,-0.7827,-0.7844,-0.7851,-0.7855,-0.7868,-0.7868,-0.7879,-0.7883,-0.7898,-0.7906,-0.79,-0.7925,-0.7924,-0.7926,-0.7919,-0.792,-0.792,-0.7918,-0.7904,0,0,0,0,0,-0.7779,-0.779,-0.7806,-0.7818,-0.7824,-0.7836,-0.7844,-0.785,-0.7863,-0.7868,-0.7879,-0.7891,-0.7905,-0.7913,-0.7926,-0.7941,-0.7945,-0.7948,-0.7948,-0.7948,-0.7949,-0.7959,-0.796,-0.7947,-0.7947,-0.7947,0,0,-0.7779,-0.7791,-0.7797,-0.7817,-0.7827,-0.7838,-0.784,-0.7853,-0.7862,-0.787,-0.7885,-0.7894,-0.7909,-0.7925,-0.7932,-0.7932,-0.7954,-0.7949,-0.7949,-0.795,-0.7959,-0.7961,-0.7962,-0.7947,-0.7947,-0.7947,0,0,-0.7786,-0.7796,-0.7807,-0.7817,-0.7832,-0.784,-0.7843,-0.7859,-0.7865,-0.7881,-0.7887,-0.7899,-0.7921,-0.7931,-0.7939,-0.7951,-0.7955,-0.7955,-0.7957,-0.7966,-0.7967,-0.7968,-0.7972,-0.7974,-0.7956,-0.7956,-0.7956,0,-0.7784,-0.7802,-0.7812,-0.7824,-0.7832,-0.784,-0.7852,-0.7861,-0.788,-0.7886,-0.7885,-0.7914,-0.7924,-0.7943,-0.7946,-0.7952,-0.7956,-0.7953,-0.7966,-0.7967,-0.7968,-0.7972,-0.7974,-0.7956,-0.7956,-0.7956,-0.7956,0,-0.78,-0.7812,-0.7819,-0.7836,-0.7846,-0.7858,-0.787,-0.7878,-0.7884,-0.7893,-0.7909,-0.7922,-0.7938,-0.7943,-0.7949,-0.7963,-0.7962,-0.7964,-0.7963,-0.7969,-0.7973,-0.7975,-0.7956,-0.7956,-0.7956,-0.7956,0,0,-0.7802,-0.7825,-0.7827,-0.7836,-0.7853,-0.7863,-0.7876,-0.7891,-0.7898,-0.7911,-0.7922,-0.7941,-0.7943,-0.7952,-0.7959,-0.7967,-0.7976,-0.7968,-0.7969,-0.7969,-0.7992,-0.799,-0.7992,-0.7979,-0.7979,-0.798,-0.7991,0,-0.781,-0.7832,-0.7842,-0.786,-0.7871,-0.7879,-0.789,-0.7903,-0.7912,-0.7923,-0.7933,-0.7946,-0.7948,-0.7954,-0.7962,-0.7973,-0.7981,-0.7972,-0.7989,-0.799,-0.7985,-0.7994,-0.7992,-0.8002,-0.7993,-0.7993,-0.7993,0,-0.7823,-0.7836,-0.7854,-0.7871,-0.7876,-0.7886,-0.7901,-0.7912,-0.7927,-0.7933,-0.7943,-0.795,-0.7964,-0.7963,-0.7983,-0.7977,-0.7985,-0.7991,-0.7992,-0.7993,-0.7991,-0.7996,-0.8006,-0.8007,-0.7996,-0.7996,-0.7995,0,-0.7822,-0.7844,-0.7858,-0.7865,-0.7885,-0.7892,-0.79,-0.7915,-0.7923,-0.7937,-0.7943,-0.7958,-0.7966,-0.7978,-0.7989,-0.7987,-0.8008,-0.8008,-0.8014,-0.8013,-0.8017,-0.8016,-0.8028,-0.8023,-0.8023,-0.8023,-0.8023,0,-0.7831,-0.7842,-0.7858,-0.7867,-0.788,-0.7892,-0.7904,-0.7914,-0.7926,-0.7937,-0.7946,-0.7956,-0.7971,-0.7983,-0.7992,-0.8007,-0.8011,-0.8016,-0.8018,-0.8015,-0.8014,-0.802,-0.8019,-0.8023,-0.8023,-0.8023,-0.8023,0,-0.7832,-0.7843,-0.7859,-0.7877,-0.7882,-0.789,-0.7906,-0.7915,-0.7924,-0.7938,-0.7942,-0.7958,-0.7973,-0.7985,-0.8005,-0.8011,-0.8027,-0.8029,-0.8021,-0.8022,-0.8028,-0.8027,-0.8043,-0.8045,-0.8039,-0.8039,-0.8039,0,-0.7836,-0.7845,-0.7863,-0.7871,-0.788,-0.7892,-0.7901,-0.7913,-0.7922,-0.794,-0.7947,-0.7963,-0.7976,-0.8,-0.8013,-0.8028,-0.8031,-0.8036,-0.8033,-0.803,-0.8031,-0.803,-0.8031,-0.8035,-0.8036,-0.8036,-0.8036,0,-0.7842,-0.7848,-0.786,-0.7875,-0.7885,-0.7898,-0.791,-0.7916,-0.7931,-0.7941,-0.7956,-0.7966,-0.7987,-0.8002,-0.8019,-0.8029,-0.8035,-0.8036,-0.8038,-0.8035,-0.803,-0.8032,-0.8022,-0.8036,-0.8036,-0.8036,-0.8036,-0.8036,-0.7845,-0.7853,-0.7867,-0.7881,-0.7892,-0.7904,-0.7913,-0.7924,-0.7937,-0.7954,-0.7961,-0.7976,-0.7992,-0.8015,-0.8025,-0.8038,-0.8038,-0.8042,-0.8042,-0.8043,-0.8042,-0.8028,-0.8041,-0.8041,-0.8041,-0.8041,-0.8041,0,-0.7851,-0.7861,-0.7874,-0.7891,-0.7902,-0.7907,-0.7921,-0.793,-0.7944,-0.7957,-0.797,-0.7988,-0.8003,-0.8018,-0.8034,-0.8042,-0.8045,-0.8046,-0.8045,-0.8047,-0.8041,-0.8037,-0.8043,-0.8043,-0.8043,-0.8043,-0.8043,-0.8043,-0.7856,-0.787,-0.7877,-0.7897,-0.7907,-0.7923,-0.793,-0.7941,-0.7952,-0.7972,-0.7984,-0.7994,-0.8008,-0.8026,-0.804,-0.8044,-0.805,-0.8049,-0.8054,-0.8048,-0.8047,-0.8047,-0.8044,-0.8051,-0.8051,-0.8059,-0.8059,-0.8059]}]]